Regional Weather Roundup
Issued by NWS Newport/Morehead, NC

Current Version | Previous Version | Text Only | Print | Product List | Glossary On
Versions: 1 2 3 4 5 6 7 8 9 10 11 12 13 14 15 16 17 18 19 20 21 22 23 24 25 26 27 28 29 30 31 32 33 34 35 36 37 38 39 40 41 42 43 44 45 46 47 48 49 50
989 ASUS42 KMHX 101313 RWRMHX WEATHER ROUNDUP FOR EASTERN NORTH CAROLINA NATIONAL WEATHER SERVICE NEWPORT/MOREHEAD CITY NC 800 AM EST WED FEB 10 2016 NOTE: "FAIR" INDICATES FEW OR NO CLOUDS BELOW 12,000 FEET WITH NO SIGNIFICANT WEATHER AND/OR OBSTRUCTIONS TO VISIBILITY NCZ015>017-031-032-045>047-102-103-101400- NORTH COAST CITY SKY/WX TMP DP RH WIND PRES REMARKS EDENTON SUNNY 32 19 57 W12G20 29.89R ELIZABETH CITY MOSUNNY 30 17 58 W15 29.87R WCI 19 KITTY HAWK SUNNY 32 19 57 W10G22 29.84R MANTEO SUNNY 31 19 62 W15G21 29.86R $$ NCZ045>047-081-094-103-104-101400- CENTRAL COAST CITY SKY/WX TMP DP RH WIND PRES REMARKS FRISCO SUNNY 33 19 56 NW15G28 29.88R SWANQUARTER N/A N/A N/A N/A W18G24 29.88R $$ NCZ095-097-098-100-101-101400- SOUTHERN COAST CITY SKY/WX TMP DP RH WIND PRES REMARKS BEAUFORT MOSUNNY 31 17 56 W14 29.94R CEDAR ISLAND N/A 32 N/A N/A W12G29 29.97R JACKSONVILLE SUNNY 31 16 54 W10 29.94R PINEY ISLAND SUNNY N/A N/A N/A W20G29 29.92R WILMINGTON MOSUNNY 34 17 50 W12 29.96R $$ NCZ011>013-027>030-043-044-078>080-089-090>093-098-101400- COASTAL PLAIN CITY SKY/WX TMP DP RH WIND PRES REMARKS AHOSKIE CLEAR 28 16 60 CALM 29.89R CLINTON PTCLDY 29 19 68 W6 29.95R ELIZABETHTOWN CLEAR 29 19 64 CALM 29.96R GOLDSBORO PTCLDY 30 18 59 W9 29.91R GREENVILLE SUNNY 30 18 59 W6 29.93S HAVELOCK SUNNY 31 16 54 W10 29.94R KENANSVILLE PTCLDY 28 17 63 CALM 29.95R KINSTON MOSUNNY 30 18 59 W5 29.94R NEW BERN SUNNY 31 15 52 W13G21 29.94R RICHLANDS SUNNY 30 14 51 SW6 29.95R ROCKY MOUNT PTCLDY 28 16 60 W8 29.91R WASHINGTON SUNNY 30 16 56 W8 29.91R WHITEVILLE CLEAR 32 24 71 SW5 29.96R $$ AMZ130-135-150-152-154-156-158-170-250-252-270-ANZ085-086-088-633-658-670-101400- MARINE OBSERVATIONS STATION/POSITION TIME TEMP WIND PRES WAVE SWELL AIR SEA DIR/SP/G HT/PER HT/PER (UTC) (F) (DEG/KT/KT) (MB) (FT/S) (FT/S) CHESAPEAKE LIGHT 1200 32 270/ 21/ 23 1009.5 64 E VA BEACH 1250 35 50 280/ 25/ 29 1008.2 8/ 6 5/14 DUCK 1200 31 280/ 19/ 24 1009.7 2 E DUCK 1211 44 N/A 4/13 3/13 OREGON INLET 1200 31 44 260/ 14/ 22 1010.3 13E OREGON INLT 1300 47 N/A 6/13 5/13 HATTERAS CG 1200 34 50 280/ 26/ 31 1010.5 DIAMOND BUOY 1250 38 73 290/ 27/ 35 1011.0 8/ 6 3/14 CAPE LOOKOUT NOT AVBL BEAUFORT LAB 1200 31 46 290/ 8/ 12 1012.0 30 SE NEW RVR IN 1208 40 59 1012.6 30 SE NEW RVR IN 1225 59 N/A 8/ 8 3/15 27 SE WRIGHTSVLE 1208 40 60 360/ 17/ 25 1011.9 5 SE WRIGHTSVLE 1208 37 51 300/ 16/ 21 1013.9 225 S CAPE HAT 1250 52 68 280/ 29/ 35 N/A 19/11 10/11 41 SE CHARLESTON 1250 39 64 270/ 25/ 31 1015.9 8/ 7 2/14 $$

USA.gov is the U.S. government's official web portal to all federal, state and local government web resources and services.